Weather History for KAEX - October, 2011

Change the Weather History Date:

Sunday, October 23, 2011

  Actual Average Record
Temperature  
Mean Temperature 69 °F 65 °F  
Max Temperature 80 °F 78 °F 93 °F (1939)
Min Temperature 57 °F 52 °F 33 °F (1893)
Degree Days  
Heating Degree Days 0 3  
Month to date heating degree days 50 39  
Since 1 July heating degree days 50 42  
Cooling Degree Days 4 3  
Month to date cooling degree days 80 115  
Year to date cooling degree days 2957 2465  
Growing Degree Days 18 (Base 50)    
Moisture  
Dew Point 62 °F    
Average Humidity 76    
Maximum Humidity 100    
Minimum Humidity 51    
Precipitation  
Precipitation 0.01 in 0.15 in 8.12 in (1972)
Month to date precipitation 0.37 4.48  
Year to date precipitation 26.27 43.61  
Snow  
Snow 0.00 in - 0.00 in ()
Month to date snowfall 0.0  
Since 1 July snowfall 0.0  
Since 1 September snowfall 0.0  
Snow Depth 0.00 in    
Sea Level Pressure  
Sea Level Pressure 30.04 in    
Wind  
Wind Speed 4 mph (SE)    
Max Wind Speed 14 mph    
Max Gust Speed 18 mph    
Visibility 10 miles    
Events Rain    
T = Trace of Precipitation, MM = Missing Value Source: NWS Daily Summary

Daily Weather History Graph

Daily Weather History Graph

Search for Another Location

Airport or City:

Trip Planner

Search our weather history database for the weather conditions in past years. The results will help you decide how hot, cold, wet, or windy it might be!

Date:

Astronomy

Oct. 23, 2011 Rise Set
Actual Time 7:18 AM CDT 6:29 PM CDT
Civil Twilight 6:54 AM CDT 6:54 PM CDT
Nautical Twilight 6:25 AM CDT 7:22 PM CDT
Astronomical Twilight 5:57 AM CDT 7:51 PM CDT
Moon 3:39 AM CDT (10/23) 4:10 PM CDT (10/23)
Length of Visible Light 12h 00m
Length of Day
11h 11m
Waning Crescent, 14% of the Moon is Illuminated
Oct 23
Waning Crescent
Oct 26
New
Nov 2
First Quarter
Nov 10
Full
Nov 18
Last Quarter

Hourly Weather History & Observations

Time (CDT) Temp. Heat Index Dew Point Humidity Pressure Visibility Wind Dir Wind Speed Gust Speed Precip Events Conditions
12:53 AM 59.0 °F - 57.0 °F 93% 30.04 in 10.0 mi SE 3.5 mph - N/A   Clear
1:53 AM 60.1 °F - 57.9 °F 93% 30.04 in 10.0 mi Calm Calm - N/A   Clear
2:53 AM 59.0 °F - 57.9 °F 96% 30.04 in 10.0 mi SE 4.6 mph - N/A   Clear
3:53 AM 57.9 °F - 57.0 °F 97% 30.03 in 8.0 mi Calm Calm - N/A   Clear
4:53 AM 57.9 °F - 57.0 °F 97% 30.06 in 10.0 mi Calm Calm - N/A   Mostly Cloudy
5:53 AM 60.1 °F - 59.0 °F 96% 30.07 in 10.0 mi NNW 6.9 mph - N/A   Overcast
6:53 AM 60.1 °F - 59.0 °F 96% 30.05 in 7.0 mi South 6.9 mph - N/A   Partly Cloudy
7:53 AM 61.0 °F - 59.0 °F 93% 30.03 in 9.0 mi ESE 6.9 mph - N/A   Clear
8:53 AM 64.4 °F - 60.8 °F 88% 30.02 in 10.0 mi South 5.8 mph - N/A   Clear
9:53 AM 69.1 °F - 61.0 °F 75% 30.05 in 10.0 mi South 3.5 mph - N/A   Clear
10:53 AM 73.0 °F - 62.1 °F 68% 30.05 in 10.0 mi SW 6.9 mph - N/A   Partly Cloudy
11:53 AM 77.0 °F - 62.1 °F 60% 30.04 in 10.0 mi SSW 12.7 mph - N/A   Scattered Clouds
12:53 PM 77.0 °F - 60.1 °F 56% 30.02 in 10.0 mi SW 9.2 mph - N/A   Mostly Cloudy
1:53 PM 80.1 °F 81.1 °F 61.0 °F 52% 30.00 in 10.0 mi Variable 4.6 mph - N/A   Overcast
2:53 PM 72.0 °F - 66.0 °F 81% 29.99 in 10.0 mi South 4.6 mph - 0.00 in   Overcast
3:53 PM 72.0 °F - 68.0 °F 87% 30.00 in 10.0 mi NE 4.6 mph - 0.01 in   Overcast
4:53 PM 71.1 °F - 66.9 °F 87% 30.00 in 10.0 mi ENE 4.6 mph - 0.00 in Rain Light Rain
5:53 PM 71.1 °F - 68.0 °F 90% 30.01 in 10.0 mi East 4.6 mph - 0.00 in   Overcast
6:53 PM 68.0 °F - 66.2 °F 94% 30.01 in 10.0 mi ESE 4.6 mph - N/A   Mostly Cloudy
7:53 PM 69.1 °F - 66.9 °F 93% 30.04 in 10.0 mi SE 3.5 mph - N/A   Overcast
8:53 PM 69.1 °F - 66.0 °F 90% 30.06 in 10.0 mi ENE 3.5 mph - 0.00 in   Overcast
9:53 PM 68.0 °F - 66.0 °F 93% 30.09 in 10.0 mi Calm Calm - N/A   Overcast
10:53 PM 64.9 °F - 64.0 °F 97% 30.09 in 10.0 mi Calm Calm - N/A   Scattered Clouds
11:53 PM 66.2 °F - 64.4 °F 94% 30.08 in 10.0 mi Calm Calm - N/A   Overcast